Time,TemperatureF,DewpointF,PressureIn,WindDirection,WindDirectionDegrees,WindSpeedMPH,WindSpeedGustMPH,Humidity,HourlyPrecipIn,Conditions,Clouds,dailyrainin,SoftwareType,DateUTC
2013-09-09 00:14:00,53.0,42.0,30.07,NE,45,0.0,0.0,65,0.00,,,0.00,,2013-09-09 04:14:00,
2013-09-09 00:24:00,53.0,42.0,30.07,NE,45,0.0,0.0,67,0.00,,,0.00,,2013-09-09 04:24:00,
2013-09-09 00:54:00,52.0,42.0,30.08,NE,45,0.0,0.0,68,0.00,,,0.00,,2013-09-09 04:54:00,
2013-09-09 01:23:00,51.0,42.0,30.09,NE,45,0.0,0.0,70,0.00,,,0.00,,2013-09-09 05:23:00,
2013-09-09 01:53:00,50.0,41.0,30.09,ENE,68,0.0,0.0,72,0.00,,,0.00,,2013-09-09 05:53:00,
2013-09-09 02:22:00,49.0,41.0,30.09,ENE,68,0.0,0.0,73,0.00,,,0.00,,2013-09-09 06:22:00,
2013-09-09 02:52:00,49.0,41.0,30.09,ENE,68,0.0,0.0,73,0.00,,,0.00,,2013-09-09 06:52:00,
2013-09-09 03:22:00,49.0,41.0,30.10,NE,45,0.0,0.0,73,0.00,,,0.00,,2013-09-09 07:22:00,
2013-09-09 03:52:00,48.0,40.0,30.11,NE,45,0.0,0.0,74,0.00,,,0.00,,2013-09-09 07:52:00,
2013-09-09 04:22:00,48.0,40.0,30.12,NE,45,0.0,0.0,75,0.00,,,0.00,,2013-09-09 08:22:00,
2013-09-09 04:52:00,47.0,40.0,30.14,NE,45,0.0,0.0,77,0.00,,,0.00,,2013-09-09 08:52:00,
2013-09-09 05:22:00,46.0,40.0,30.15,NE,45,0.0,0.0,79,0.00,,,0.00,,2013-09-09 09:22:00,
2013-09-09 05:54:00,46.0,40.0,30.16,NE,45,0.0,0.0,80,0.00,,,0.00,,2013-09-09 09:54:00,
2013-09-09 06:23:00,46.0,41.0,30.17,NE,45,0.0,0.0,81,0.00,,,0.00,,2013-09-09 10:23:00,
2013-09-09 06:53:00,46.0,41.0,30.19,NE,45,0.0,0.0,81,0.00,,,0.00,,2013-09-09 10:53:00,
2013-09-09 07:22:00,46.0,41.0,30.20,NE,45,0.0,0.0,81,0.00,,,0.00,,2013-09-09 11:22:00,
2013-09-09 07:52:00,47.0,42.0,30.21,NE,45,0.0,0.0,82,0.00,,,0.00,,2013-09-09 11:52:00,
2013-09-09 08:22:00,49.0,43.0,30.22,NE,45,0.0,0.0,81,0.00,,,0.00,,2013-09-09 12:22:00,
2013-09-09 08:52:00,51.0,44.0,30.21,NE,45,0.0,0.0,78,0.00,,,0.00,,2013-09-09 12:52:00,
2013-09-09 09:22:00,54.0,47.0,30.23,NE,45,0.0,0.0,76,0.00,,,0.00,,2013-09-09 13:22:00,
2013-09-09 09:52:00,56.0,47.0,30.22,NE,45,0.0,0.0,73,0.00,,,0.00,,2013-09-09 13:52:00,
2013-09-09 10:22:00,60.0,50.0,30.22,SE,135,0.0,0.0,69,0.00,,,0.00,,2013-09-09 14:22:00,
2013-09-09 10:52:00,63.0,50.0,30.22,ESE,113,0.0,0.0,63,0.00,,,0.00,,2013-09-09 14:52:00,
2013-09-09 11:22:00,64.0,49.0,30.21,ENE,68,0.0,0.0,58,0.00,,,0.00,,2013-09-09 15:22:00,
2013-09-09 11:53:00,66.0,49.0,30.22,ENE,68,0.0,0.0,55,0.00,,,0.00,,2013-09-09 15:53:00,
2013-09-09 12:24:00,68.0,49.0,30.21,NW,315,0.0,0.0,51,0.00,,,0.00,,2013-09-09 16:24:00,
2013-09-09 14:52:00,68.0,48.0,30.18,ESE,113,0.0,0.0,48,0.00,,,0.00,,2013-09-09 18:52:00,
2013-09-09 15:22:00,69.0,48.0,30.17,WSW,248,2.0,2.0,48,0.00,,,0.00,,2013-09-09 19:22:00,
2013-09-09 16:22:00,69.0,48.0,30.16,WSW,248,3.0,3.0,48,0.00,,,0.00,,2013-09-09 20:22:00,
2013-09-09 16:53:00,68.0,49.0,30.17,WSW,248,0.0,0.0,51,0.00,,,0.00,,2013-09-09 20:53:00,
2013-09-09 17:22:00,67.0,48.0,30.17,ESE,113,1.0,4.0,51,0.00,,,0.00,,2013-09-09 21:22:00,
2013-09-09 17:54:00,67.0,49.0,30.17,SSE,158,0.0,0.0,52,0.00,,,0.00,,2013-09-09 21:54:00,
2013-09-09 18:24:00,63.0,48.0,30.16,SE,135,3.0,3.0,57,0.00,,,0.00,,2013-09-09 22:24:00,
2013-09-09 18:54:00,61.0,48.0,30.16,SE,135,0.0,0.0,62,0.00,,,0.00,,2013-09-09 22:54:00,
2013-09-09 19:22:00,59.0,47.0,30.16,SSE,158,0.0,0.0,65,0.00,,,0.00,,2013-09-09 23:22:00,
2013-09-09 19:52:00,58.0,47.0,30.15,SSE,158,0.0,5.0,68,0.00,,,0.00,,2013-09-09 23:52:00,
2013-09-09 20:22:00,57.0,48.0,30.15,SSE,158,0.0,0.0,71,0.00,,,0.00,,2013-09-10 00:22:00,
2013-09-09 20:42:00,57.0,48.0,30.16,SSE,158,0.0,2.0,71,0.00,,,0.00,,2013-09-10 00:42:00,
2013-09-09 20:52:00,57.0,48.0,30.16,SE,135,4.0,4.0,73,0.00,,,0.00,,2013-09-10 00:52:00,
2013-09-09 21:21:00,57.0,48.0,30.16,SSE,158,0.0,0.0,73,0.00,,,0.00,,2013-09-10 01:21:00,
2013-09-09 21:53:00,58.0,49.0,30.16,SSE,158,0.0,0.0,72,0.00,,,0.00,,2013-09-10 01:53:00,
2013-09-09 22:22:00,58.0,49.0,30.16,South,180,0.0,6.0,72,0.00,,,0.00,,2013-09-10 02:22:00,
2013-09-09 22:52:00,58.0,49.0,30.16,SSW,203,0.0,0.0,72,0.00,,,0.00,,2013-09-10 02:52:00,
2013-09-09 23:22:00,57.0,48.0,30.16,SE,135,0.0,0.0,73,0.00,,,0.00,,2013-09-10 03:22:00,
2013-09-09 23:55:00,57.0,49.0,30.15,SE,135,4.0,4.0,75,0.00,,,0.00,,2013-09-10 03:55:00,